Regional Weather Roundup
Issued by NWS

Home | Current Version | Previous Version | Text Only | Print | Product List | Glossary Off
Versions: 1 2 3 4 5 6 7 8 9 10 11 12 13 14 15 16 17 18 19 20 21 22 23 24 25 26 27 28 29 30 31 32 33 34 35 36 37 38 39 40 41 42 43 44 45 46 47 48 49 50

474
ASUS45 KTFX 190110
RWRMT
MONTANA REGIONAL WEATHER ROUNDUP
NATIONAL WEATHER SERVICE GREAT FALLS MT
600 PM MST SUN FEB 18 2018

NOTE: "FAIR" INDICATES FEW OR NO CLOUDS BELOW 12000 FEET WITH NO
SIGNIFICANT WEATHER AND/OR OBSTRUCTIONS TO VISIBILITY.

MTZ001>007-043-190200-
WEST OF THE DIVIDE

CITY           SKY/WX    TMP DP  RH WIND       PRES   REMARKS
KALISPELL      CLOUDY     9  -1  64 NE24      29.91R WCI -12
MISSOULA       CLOUDY    13   1  59 E16G25    29.82R WCI  -3
BUTTE          CLOUDY     3  -4  72 W7        29.67R HAZE    WCI  -9
MULLAN PASS    LGT SNOW   1  -1  91 E8        29.53R VSB 3/4 WCI -13
ANACONDA         N/A      1  -6  71 MISG      29.73R
DEER LODGE       N/A      3  -6  66 MISG      29.79R
HAMILTON         N/A     12   9  85 MISG        N/A  VSB 1/2
PLAINS           N/A     15   2  56 E2        29.88R
RONAN            N/A     14  12  92 CALM      29.84R FOG
$$

MTZ008-052>055-190200-
SOUTHWEST MONTANA

CITY           SKY/WX    TMP DP  RH WIND       PRES   REMARKS
BOZEMAN        CLOUDY     9   1  70 SW7       29.76R HAZE    WCI  -2
DILLON         FLURRIES  -1  -1 100 NE23G30   29.61F WCI -25
ENNIS          LGT SNOW   3   0  85 NW10G18   29.69S WCI -12
W YELLOWSTONE  LGT SNOW  10   5  79 NW7       29.44R WCI   0
THREE FORKS      N/A      8   2  76 N8        29.79R VSB 0   WCI  -4
TWIN BRIDGES     N/A      6  -4  63 N21       29.69R WCI -14
$$

MTZ009-010-012-014-046-048-049-054-190200-
EAST SLOPES AND CENTRAL MONTANA

CITY           SKY/WX    TMP DP  RH WIND       PRES   REMARKS
CUT BANK       FAIR      -7 -11  83 N10       29.99R WCI -25
GREAT FALLS    FLURRIES   1  -4  79 NE10      29.99S WCI -15
MALMSTROM AFB  FLURRIES   1  -3  87 N8        30.02R WCI -14
HELENA         CLOUDY     5  -1  76 N15       29.89R HAZE    WCI -13
AUGUSTA        FLURRIES  -6 -10  83 N17       29.92R WCI -28
BOWMANS CRNR   LGT SNOW  -3  -6  85 N21       29.90R WCI -26
CONRAD           N/A     -2  -8  75 NW6       30.03  WCI -14
FAIRFIELD      FLURRIES  -1  -7  77 N13       29.98R WCI -20
RAYNESFORD     FLURRIES   0  -4  81 NW9       29.94R WCI -15
ULM            LGT SNOW   2  -2  83 NE9       30.00R WCI -13
WHITE SULPHUR    N/A      0  -6  78 NW17      29.76S WCI -21
$$

MTZ011-013-016-021-045-047-050-051-190200-
NORTH CENTRAL MONTANA

CITY           SKY/WX    TMP DP  RH WIND       PRES   REMARKS
HAVRE          FAIR      -1  -6  79 NW6       30.10R HAZE    WCI -13
LEWISTOWN      LGT SNOW   0  -3  87 W9        29.92R VSB 1   WCI -15
N BAR RANCH    CLOUDY     0  -8  71 NE8       29.90R WCI -15
CHINOOK          N/A      1  -2  85 CALM      30.12R
GEYSER         MOCLDY    -1  -7  75 NE14      29.93R WCI -20
STANFORD       FLURRIES  -1  -4  87 N9        29.90R WCI -17
WINIFRED       LGT SNOW   1  -3  86 E8        29.96R WCI -14
$$

MTZ017>020-022>027-061-062-190200-
NORTHEAST MONTANA

CITY           SKY/WX    TMP DP  RH WIND       PRES   REMARKS
GLASGOW        FAIR       1  -5  75 NW8       30.06S WCI -13
GLENDIVE       FLURRIES   5   0  79 N10       30.03R WCI -10
JORDAN           N/A      3  -2  79 N10       30.03R WCI -12
MALTA          CLOUDY     1  -4  78 NW10      30.08S WCI -14
SIDNEY         FAIR       4  -2  76 N9        30.07R WCI -10
WOLF POINT     FAIR       3  -4  72 NW8       30.10R WCI -10
PLENTYWOOD       N/A      5  -2  72 CALM      30.05R
POPLAR           N/A      1  -6  71 N3        30.10R
SCOBEY           N/A      3  -8  60 CALM      30.02R
$$

MTZ028>42-056>058-190200-
SOUTHCENTRAL AND SOUTHEAST MONTANA

CITY           SKY/WX    TMP DP  RH WIND       PRES   REMARKS
BAKER          LGT SNOW   6   3  87 N9        29.95R FOG     WCI  -8
BILLINGS       CLOUDY     3   0  87 NE14      29.93R WCI -15
LIVINGSTON     MIX PCPN   4   0  83 E24       29.78R FOG     WCI -19
MILES CITY     LGT SNOW   5   1  83 N10       30.02R FOG     WCI -10
BIG TIMBER     HAZE       3  -2  78 N16       29.87R VSB 1   WCI -16
EKALAKA          N/A      4  -3  72 N13       29.86R WCI -13
FORSYTH          N/A      5   1  85 NW5       30.04R
HARLOWTON      LGT SNOW   1  -4  82 NE23      29.86R WCI -23
LAUREL           N/A      5   1  85 NE10      29.96R WCI -10
$$

REGIONAL REPORTS...DAKOTAS

CITY           SKY/WX    TMP DP  RH WIND       PRES   REMARKS
WILLISTON      FAIR       5  -2  72 N10       30.06R WCI -10
MINOT          FAIR       7  -2  66 NW14      30.04R WCI -10
DICKINSON      CLOUDY     6  -1  73 N8        29.96R WCI  -7
BEACH          CLOUDY     5   0  78 N13       30.01R WCI -12
CROSBY         FAIR      -4 -11  71 NW6       30.09R WCI -16
TIOGA          FAIR       3  -6  66 N10       30.03R WCI -12
BISMARCK       FAIR      10   1  67 N14G22    29.99R WCI  -6
GRAND FORKS    MOCLDY    11   5  77 N22       30.00R WCI  -8
FARGO          FAIR      12   8  84 N18       29.91R WCI  -6
BUFFALO SD       N/A      8   3  80 N12       29.83R WCI  -7
RAPID CITY     LGT SNOW   8   4  83 N26       29.84R VSB 1   WCI -14
$$

REGIONAL REPORTS...WYOMING/IDAHO/WASHINGTON

CITY           SKY/WX    TMP DP  RH WIND       PRES   REMARKS
GILLETTE       LGT SNOW   4   0  83 N18       29.79S FOG     WCI -16
SHERIDAN       LGT SNOW   6   2  83 NW9       29.87S FOG     WCI  -8
BUFFALO WY     CLOUDY     4  -2  76 N17       29.76S WCI -16
CODY           FLURRIES   3  -3  76 N10       29.76R WCI -12
YELLOWSTONE LA   N/A     16  13  88 CALM      29.43R
IDAHO FALLS    FAIR      31  23  72 SW23G35   29.48R WCI  18
SALMON         FLURRIES  28  19  69 N9        29.54R WCI  19
BOISE          LGT SNOW  32  25  75 N25G33    29.62R WCI  19
SPOKANE        MOCLDY    20  11  68 NE14      29.74R WCI   7
$$

REGIONAL REPORTS...ALBERTA

CITY           SKY/WX    TMP DP  RH WIND       PRES   REMARKS
CALGARY        CLOUDY     3  -6  66 N5        30.00R
CARDSTON         N/A     -2  -8  78 W5          N/A
EDMONTON       CLEAR      0 -11  60 W2        30.09S
FORT MCMURRAY  PTCLDY    -4 -17  54 SW5       30.11F
HIGH LEVEL     MOCLDY    14   1  57 NW3       30.06F
LETHBRIDGE     PTCLDY     0  -8  71 W12       30.07S WCI -18
LLOYDMINSTER   PTCLDY    -4 -13  65 W7        30.05R WCI -18
MEDICINE HAT   MOCLDY    -2  -8  78 W5        30.11S
MILK RIVER       N/A     -4  -8  84 N5          N/A
ONEFOUR          N/A     -2  -4  92 NW10        N/A  WCI -19
PEACE RIVER    MOCLDY     9  -4  56 NW6       30.10S WCI  -1
PINCHER CREEK  FLURRIES  -2  -8  78 SE8       29.99S WCI -17
WATERTON GATE    N/A     -2  -8  78 SW2         N/A
$$

REGIONAL REPORTS...SASKATCHEWAN

CITY           SKY/WX    TMP DP  RH WIND       PRES   REMARKS
CORONACH         N/A     -6 -11  77 W7          N/A  WCI -20
CYPRESS HILLS    N/A     -6 -11  77 NW6         N/A  WCI -18
ESTEVAN        MOCLDY    -4 -13  65 NW8       30.08R WCI -19
MOOSE JAW        N/A      1  -6  71 W9          N/A  WCI -14
PRINCE ALBERT  PTCLDY    -2 -11  65 N3        30.13R
REGINA         FLURRIES   0  -4  85 SW7       30.05R WCI -13
ROCKGLEN         N/A      1  -4  78 W6          N/A  WCI -10
SASKATOON      PTCLDY    -2  -8  78 NW3       30.11R
SWIFT CURRENT  CLEAR     -2  -8  78 W9        30.02R WCI -18
VAL MARIE        N/A      0  -8  71 N12         N/A  WCI -18
$$




USA.gov is the U.S. government's official web portal to all federal, state and local government web resources and services.